This demonstration page uses our WeatherBlox Daily Observations layout. Learn more.

Left ArrowRight Arrow

44.8408, -93.29828

Hourly Observations for June 28, 2022

Temp ( °F °C ) Dew Point ( °F °C ) Humidity (%) Winds ( mph kmh ) Pressure ( in mb ) Visibility ( mi km ) Precip ( " mm )
12:53 am 00:53 Mostly Clear 73 22.8 46 7.8 38 38 SW 10 17 30.09 1019 10 16 0.00 0.00
1:53 am 01:53 Mostly Clear 72 22.2 46 7.8 40 40 SW 10 17 30.07 1018 10 16 0.00 0.00
2:53 am 02:53 Mostly Cloudy 71 21.7 46 7.8 41 41 NW 17 28 30.10 1019 10 16 0.00 0.00
3:07 am 03:07 Cloudy 72 22.2 47 8.3 41 41 NW 18 30 30.09 1019 10 16 0.00 0.00
3:53 am 03:53 Mostly Cloudy 71 21.7 50 10 47 47 SSW 7 11 30.09 1019 10 16 0.00 0.00
4:31 am 04:31 Mostly Cloudy with Nearby Thunderstorms 71 21.7 49 9.4 46 46 SW 7 11 30.07 1018 10 16 0.00 0.00
4:46 am 04:46 Mostly Cloudy 71 21.7 48 8.9 44 44 SSW 8 13 30.06 1018 10 16 0.00 0.00
4:53 am 04:53 Mostly Cloudy 71 21.7 48 8.9 44 44 SSW 8 13 30.07 1018 10 16 0.00 0.00
5:53 am 05:53 Cloudy with Thunderstorms 70 21.1 51 10.6 51 51 WSW 9 15 30.07 1018 10 16 0.00 0.00
6:12 am 06:12 Cloudy 69 20.6 51 10.6 53 53 N 7 11 30.09 1019 10 16 0.00 0.00
6:21 am 06:21 Cloudy with Rain 68 20 53 11.7 59 59 Calm 30.08 1019 8 13 0.00 0.00
6:43 am 06:43 Cloudy with Nearby Thunderstorms 68 20 55 12.8 63 63 SE 6 9 30.07 1018 8 13 0.02 0.51
6:53 am 06:53 Cloudy 67 19.4 57 13.9 71 71 SSE 6 9 30.08 1019 10 16 0.02 0.51
7:53 am 07:53 Mostly Cloudy 70 21.1 55 12.8 59 59 SSW 7 11 30.10 1019 10 16 0.00 0.00
8:53 am 08:53 Cloudy 71 21.7 53 11.7 53 53 SW 10 17 30.09 1019 10 16 0.00 0.00
9:53 am 09:53 Mostly Cloudy 72 22.2 53 11.7 52 52 SSW 8 13 30.08 1019 10 16 0.00 0.00
10:53 am 10:53 Mostly Cloudy 75 23.9 55 12.8 50 50 WSW 8 13 30.07 1018 10 16 0.00 0.00
11:53 am 11:53 Mostly Cloudy 78 25.6 53 11.7 42 42 SW 7 11 30.06 1018 10 16 0.00 0.00
12:53 pm 12:53 Mostly Cloudy 79 26.1 54 12.2 42 42 S 8 13 30.04 1017 10 16 0.00 0.00
1:53 pm 13:53 Mostly Cloudy 81 27.2 55 12.8 41 41 SW 12 19 30.04 1017 10 16 0.00 0.00
2:53 pm 14:53 Partly Cloudy 82 27.8 54 12.2 38 38 VRB 6 9 30.02 1017 10 16 0.00 0.00
3:53 pm 15:53 Partly Cloudy 85 29.4 54 12.2 35 35 W 9 15 30.01 1016 10 16 0.00 0.00
4:53 pm 16:53 Mostly Cloudy 86 30 52 11.1 31 31 NNW 14 22 30.00 1016 10 16 0.00 0.00
5:53 pm 17:53 Mostly Cloudy 84 28.9 55 12.8 37 37 NNW 13 20 30.00 1016 10 16 0.00 0.00
6:53 pm 18:53 Partly Cloudy 83 28.3 52 11.1 34 34 N 12 19 30.01 1016 10 16 0.00 0.00
7:53 pm 19:53 Partly Cloudy 79 26.1 56 13.3 45 45 NNE 14 22 30.03 1017 10 16 0.00 0.00
8:53 pm 20:53 Mostly Sunny 75 23.9 58 14.4 55 55 NNE 12 19 30.04 1017 10 16 0.00 0.00
9:53 pm 21:53 Clear 72 22.2 56 13.3 57 57 NNE 8 13 30.06 1018 10 16 0.00 0.00
10:53 pm 22:53 Clear 69 20.6 54 12.2 59 59 NNE 13 20 30.09 1019 10 16 0.00 0.00
11:53 pm 23:53 Mostly Clear 66 18.9 51 10.6 59 59 NE 8 13 30.11 1020 10 16 0.00 0.00

Powered by AerisWeather